Погода в Умани

Погода в Умани : погода сейчас, прогноз погоды и архив. Всё, что Вы хотите узнать о погоде в Умани!

Хотите узнать прогноз погоды в Умани? Тогда Вам сюда: Погода в Умани

Поиск расширенной информации на нашем сайте:

Другие новости

Новости СМИ2

Главная страница сайта

Новости сайта

03.07.2017

Напоминаем, что на нашем специализированном сайте Метеоцентр.Азия вы можете получить высокодетализированные автоматические прогнозы погоды по пунктам России, СНГ и мира в авиационном формате (включающие направление и скорость ветра, видимость, явления погоды, количество и форму облачности, нижнюю и верхнюю границу облачности).


Погода в Умани - сегодня

Время (UTC), дата Ветер
(°,м/с) 
Видим.   Явления Облачность Т
(°С)
Тd
(°С)
f(%) Тe
(°С)
Pmin
(гПа)
dP
(гПа)
Po
(мм)
O2
(г/м3)
Тmin Tmax R s Состояние
почвы
00 16.02.18 тихо ()   н/о  дымка{ливн. осадки}  10/10 540 м кучево-дожд. 
[Cb calv]
-1.1 -2.4 91 -1  1027.5  0.2  750  304           
03 16.02.18 050 (СВ) н/о  дымка  10/10 480 м кучево-дожд. 
[Cb calv]
-1.5 -2.6 92 -1  1027.2  -0.3  750  304           
06 16.02.18 050 (СВ) 4000 м  дымка  10/10 300 м 
[St]
-1.6 -2.4 94 -1  1027.8  0.6  750  304  -1.7    0.2     
09 16.02.18 090 (В) 1000 м  дымка  10/10 630 м 
[St]
-0.8 -1.4 96 1027.6  -0.1  750  303           
12 16.02.18 090 (В) 2000 м  дымка  10/10 630 м 
[St]
+0.2 -0.9 92 +1  1026.8  -0.7  750  302           
15 16.02.18 тихо ()   1000 м  дымка  10/10 330 м 
[St]
+0.2 -0.6 94 1026.1  -0.7  749  302           
18 16.02.18 тихо ()   н/о  слаб. снег  10/10 300 м 
[Frnb]
+0 -0.8 94 1026.1  749  302    +0.3  0.0     
21 16.02.18 030 (СВ) н/о  слаб. снег  10/10 360 м 
[Frnb]
+0 -0.5 96 +1  1025.7  -0.4  749  302           
00 17.02.18 280 (З) н/о  дымка{снег}  10/10 300 м 
[St]
+0 -0.8 94 -1  1025.2  -0.5  749  302           
03 17.02.18 210 (ЮЗ) н/о  дымка  10/10 330 м 
[St]
+0 -1.2 92 -1  1024.8  -0.4  748  302           
06 17.02.18 280 (З) 2000 м  дымка  10/0 средняя, верхняя 
[Ac und|Ci fib]
-1 -2 93 -2  1025.1  0.3  748  303  -1    0.6     
09 17.02.18 300 (СЗ) 10 км    10/10 870 м 
[Sc]
+0 -2.7 82 -1  1025.4  0.3  749  302           
12 17.02.18 330 (СЗ) 20000 м    10/10 1000 м 
[Sc|Ac trans]
+1.8 -3.3 69 +1  1024.5  -0.7  748  300           
15 17.02.18 тихо ()   10 км    ясно 
+1 -3.5 72 +1  1024  -0.5  748  301           
18 17.02.18 тихо ()   н/о    ясно 
-3.3 -6.5 78 -3  1024.7  0.3  748  306           
21 17.02.18 тихо ()   н/о    ясно 
-6.6 -8.2 88 -7  1024.5  -0.6  748  310           
00 18.02.18 тихо ()   н/о  дымка  ясно 
-8.7 -9.8 92 -9  1024.7  748  312           
03 18.02.18 тихо ()   н/о  дымка  10/0 верхняя 
[Ci fib]
-8.5 -9.6 92 -9  1023.9  -0.8  747  312           
06 18.02.18 тихо ()   4000 м  дымка  10/0 верхняя 
[Ci fib]
-7.4 -8.3 93 -7  1024.4  0.6  747  310  -9.1      20  равномерный
мокрый или
старый снег
100% 
09 18.02.18 тихо ()   10 км    10/0 средняя 
[Ac trans]
+0 -5 69 1023.1  -0.5  747  302           
12 18.02.18 180 (Ю) 10 км    10/0 средняя, верхняя 
[Ac trans|Ci fib]
+2.8 -6.9 49 +4  1022.8  -0.1  747  299           
15 18.02.18 020 (С) 10 км    10/0 средняя, верхняя 
[Ac trans|Ci fib]
+1.6 -5.4 60 +2  1022.5  -0.3  747  300           
18 18.02.18 тихо ()   н/о    9/9 1020 м 
[Sc]
+0 -4.1 74 1023.3  0.6  747  302           
21 18.02.18 230 (ЮЗ) н/о  {ливн. осадки}  10/10 840 м кучево-дожд. 
[Cb calv]
-0.2 -3.2 80 1023.1  -0.2  747  302           
00 19.02.18 270 (З) н/о  дымка{ливн. осадки}  10/10 630 м кучево-дожд. 
[Cb calv]
-1 -3.2 85 -2  1023.5  0.3  747  303           
Время (UTC), дата Ветер
(°,м/с) 
Видим.   Явления Облачность Т
(°С)
Тd
(°С)
f(%) Тe
(°С)
Pmin
(гПа)
dP
(гПа)
Po
(мм)
O2
(г/м3)
Тmin Tmax R s Состояние
почвы

Для получения пояснительной информации подведите курсор к названию столбца.

ПОГОДА в Умани - архив

Всё, что Вы хотите узнать о погоде в Умани - удобно и подробно!

Выберите нужную дату (начиная с 1 января 2015* года) и нажмите кнопку "Найти".
Будут отображены архивные сводки погоды по пункту Умань, начиная с указанной даты.


Отображать данные в формате CSV (для использования в таблицах Excel)


Внимание! Наш архив погоды предназначен исключительно для личного некоммерческого использования в познавательных целях. Если Вам необходимы официальные справки о состоянии погоды (для производственных, юридических, коммерческих и т.п. целей), обращайтесь в органы Росгидромета.

*Примечание: данная дата относится к архиву по метеостанциям СССР (Россия, СНГ, Балтия).
Архив по метеостанциям Зарубежной Европы и Азии (кроме Китая) хранится 10 дней, по другим регионам земного шара (Китай, Африка, Америка, Австралия, Океания) - 1 день.

Умань - район местоположения метеостанции


Название, широта, долгота, высота метеостанции:
Умань 48.8°ш. 30.2°д. 216 м над ур. моря [Украина]

Дополнительная информация

В oтличие oт бoльшинства пoгoдных сайтoв мы публикуем пoдрoбную метеoинфoрмацию в детальнoм прoфессиoнальнoм фoрмате.

Характеристики температуры и влажнoсти вoздуха измеряются на высoте 2 м в тени вдали oт зданий и деревьев.
Скoрoсть ветра измеряется на высoте 10 м (на урoвне рoста челoвека скoрoсть ветра ниже в 1.5-2 раза). Если метеoстанция нахoдится в гoрoде или в лесу, тo скoрoсть ветра занижена на 2-4 м/с пo сравнению с oткрытым местoм. Скoрoсть ветра над акватoриями крупных рек и oзёр, а также на вершинах хoлмoв на 2-5 м/с выше, чем в oбычных услoвиях.
Атмoсфернoе давление в разных тoчках местнoсти мoжет значительнo oтличаться oт давления на метеoстанции, в зависимoсти oт услoвий рельефа (при пoдъёме на 10 м давление пoнижается примернo на 1 мм рт.ст.).